sat.trackr.live / text

‹ back to catalog

STARLINK-31540

NORAD 59542 · 2024-074J

PAYLOAD ACTIVE UNKNOWN

§ Identity

Operator
Country
US
Launch date
2024-04-18
Launch site
AFETR
Launch vehicle
Mass (kg)
RCS (m²)

Purposes: comms

External: N2YO · Heavens-Above · Gunter

§ Orbital elements

Epoch: 2026-05-25T00:58:35.754240Z

Period
94.27 min
Inclination
42.9987°
Eccentricity
0.0001290
Mean motion
15.27578107 rev/d
Perigee alt
482.2 km
Apogee alt
483.9 km
Semi-major
6,861.2 km
B*
3.9925e-5
RAAN
272.1280°
Arg perigee
260.4177°
Mean anomaly
99.6529°
Rev number
11,769

§ Raw data

STARLINK-315401 59542U 24074J   26145.04069160  .00000837  00000+0  39925-4 0  99952 59542  42.9987 272.1280 0001290 260.4177  99.6529 15.27578107117694

JSON: /api/v1/satellites/59542 · /tle

For live sub-satellite position, see the globe view (requires WebGL).

§ Visibility from observer

Set your observer location to see the next 7 days of passes ≥ 10°. The values pass through the URL so the page stays shareable.

No JS? Fill the form by hand. The geolocation button needs JavaScript.